Home   Weather   Verona   Past weeks

Flag for Italy Past Weather in Verona, Italy — Yesterday and Last 2 Weeks

Now
45 °F

Passing clouds.


Feels Like: 43 °F
Forecast: 24 / 45 °F
Wind: 3 mph from South

Location: Verona / Villafranca

Current Time: Jan 21, 2017 at 4:42:00 pm

Latest Report: Jan 21, 2017 at 3:50 pm


Visibility: N/A

Pressure: 30.39 "Hg

Humidity: 39%

Dew Point: 21 °F

Location of VeronaLocation

Past Weather in Verona — Graph

°F

Verona Temperature Yesterday

Maximum temperature yesterday: 46 °F (at 3:20 pm)
Minimum temperature yesterday: 25 °F (at 7:50 am)
Average temperature yesterday: 33 °F

High & Low Weather Summary for the Past Weeks

 TemperatureHumidityPressure
High48 °F (Jan 15, 1:20 pm)100% (Jan 12, 10:20 pm)30.54 "Hg (Jan 12, 10:20 pm)
Low14 °F (Jan 17, 3:20 am)19% (Jan 16, 1:50 pm)29.39 "Hg (Jan 13, 2:20 pm)
Average32 °F62%30.14 "Hg
* Reported Jan 6 3:20 pm — Jan 21 3:50 pm, Verona, Weather by CustomWeather, © 2017

Note: Actual official high and low records may vary slightly from our data, if they occured in-between our weather recording intervals... More about our weather records

Advertising

Verona Weather History for the Previous 24 Hours

Scroll right to see more
 ConditionsComfort  
Time TempWeatherWind HumidityBarometerVisibility
3:50 pm
Sat, Jan 21
45 °FPassing clouds.3 mph39%30.39 "HgN/A
3:20 pm46 °FPassing clouds.3 mph40%30.39 "HgN/A
2:50 pm45 °FPassing clouds.3 mph42%30.39 "HgN/A
2:20 pm45 °FSunny.2 mph42%30.39 "Hg10 mi
1:50 pm45 °FPassing clouds.3 mph46%30.42 "HgN/A
1:20 pm45 °FPassing clouds.3 mph49%30.42 "HgN/A
12:50 pm43 °FPassing clouds.3 mph49%30.42 "HgN/A
12:20 pm41 °FSunny.3 mph57%30.45 "Hg10 mi
11:50 am41 °FSunny.3 mph57%30.45 "Hg10 mi
11:20 am39 °FSunny.2 mph56%30.48 "Hg10 mi
10:50 am37 °FSunny.2 mph60%30.48 "Hg10 mi
10:20 am34 °FSunny.2 mph65%30.48 "Hg10 mi
9:50 am32 °FSunny.3 mph69%30.48 "Hg10 mi
9:20 am28 °FSunny.2 mph74%30.48 "Hg10 mi
8:50 am23 °FSunny.No wind86%30.48 "Hg10 mi
8:20 am25 °FSunny.2 mph80%30.45 "Hg10 mi
7:50 am21 °FSunny.1 mph80%30.45 "Hg10 mi
7:20 am25 °FClear.3 mph80%30.45 "Hg10 mi
6:50 am25 °FClear.3 mph80%30.45 "Hg10 mi
6:20 am25 °FClear.2 mph80%30.45 "Hg10 mi
5:50 am25 °FClear.5 mph74%30.45 "Hg10 mi
5:20 am27 °FClear.6 mph74%30.45 "Hg10 mi
4:50 am25 °FClear.5 mph80%30.48 "Hg10 mi
4:20 am25 °FClear.3 mph80%30.48 "Hg10 mi
3:50 am25 °FClear.2 mphN/A30.48 "Hg10 mi
3:20 am25 °FClear.1 mph80%30.48 "Hg10 mi
2:50 am25 °FClear.1 mph80%30.48 "Hg10 mi
2:20 am27 °FClear.6 mph74%30.48 "Hg10 mi
1:50 am28 °FClear.5 mph74%30.48 "Hg10 mi
1:20 am27 °FClear.5 mph74%30.48 "Hg10 mi
12:50 am23 °FClear.7 mph80%30.48 "Hg10 mi
12:20 am27 °FClear.6 mph80%30.48 "Hg10 mi
11:50 pm
Fri, Jan 20
27 °FPassing clouds.3 mph80%30.48 "HgN/A
11:20 pm27 °FClear.5 mph74%30.48 "Hg10 mi
10:50 pm28 °FClear.5 mph74%30.48 "Hg10 mi
10:20 pm28 °FClear.3 mph69%30.48 "Hg10 mi
9:50 pm28 °FClear.3 mph69%30.48 "Hg10 mi
9:20 pm28 °FClear.5 mph64%30.48 "Hg10 mi
8:50 pm30 °FClear.2 mph64%30.48 "Hg10 mi
8:20 pm30 °FClear.2 mph69%30.48 "Hg10 mi
7:50 pm30 °FClear.2 mph64%30.48 "Hg10 mi
7:20 pm32 °FClear.1 mph60%30.48 "Hg10 mi
6:50 pm32 °FClear.1 mph60%30.48 "Hg10 mi
6:20 pm37 °FClear.1 mph48%30.48 "Hg10 mi
5:50 pm37 °FClear.1 mph45%30.45 "Hg10 mi
5:20 pm39 °FClear.3 mph45%30.45 "Hg10 mi
4:50 pm43 °FSunny.3 mph36%30.45 "Hg10 mi
4:20 pm46 °FSunny.1 mph32%30.45 "Hg10 mi
Weather by CustomWeather, © 2017

See weather overviewHow to use our weather pages